This demonstration page uses our WeatherBlox Daily Observations layout. Learn more.

Left ArrowRight Arrow

Hourly Observations for March 5, 2016

Temp ( °F °C ) Dew Point ( °F °C ) Humidity (%) Winds ( mph kmh ) Pressure ( in mb ) Visibility ( mi km ) Precip ( " mm )
12:15 am 00:15 Clear 36 2 21 -6 56 56 W 6 9 30.24 1024 10 16 0.00 0.00
12:35 am 00:35 Clear 34 1 21 -6 60 60 WNW 5 7 30.27 1025 10 16 0.00 0.00
12:55 am 00:55 Clear 30 -1 19 -7 64 64 NW 7 11 30.30 1026 10 16 0.00 0.00
1:15 am 01:15 Clear 30 -1 19 -7 64 64 WNW 10 17 30.30 1026 10 16 0.00 0.00
1:35 am 01:35 Clear 30 -1 21 -6 69 69 NW 10 17 30.30 1026 10 16 0.00 0.00
1:55 am 01:55 Clear 30 -1 21 -6 69 69 NW 9 15 30.30 1026 10 16 0.00 0.00
2:15 am 02:15 Clear 30 -1 19 -7 64 64 WNW 6 9 30.30 1026 10 16 0.00 0.00
2:35 am 02:35 Clear 30 -1 19 -7 64 64 Calm 30.30 1026 10 16 0.00 0.00
2:55 am 02:55 Clear 30 -1 21 -6 69 69 Calm 30.30 1026 10 16 0.00 0.00
3:15 am 03:15 Clear 30 -1 21 -6 69 69 Calm 30.30 1026 10 16 0.00 0.00
3:35 am 03:35 Clear 28 -2 19 -7 69 69 Calm 30.30 1026 10 16 0.00 0.00
3:55 am 03:55 Clear 28 -2 19 -7 69 69 W 3 6 30.30 1026 10 16 0.00 0.00
4:15 am 04:15 Clear 27 -3 19 -7 74 74 WNW 3 6 30.30 1026 10 16 0.00 0.00
4:35 am 04:35 Clear 28 -2 21 -6 74 74 WNW 5 7 30.30 1026 10 16 0.00 0.00
4:55 am 04:55 Clear 28 -2 19 -7 69 69 WNW 6 9 30.30 1026 10 16 0.00 0.00
5:15 am 05:15 Clear 28 -2 19 -7 69 69 WNW 5 7 30.30 1026 10 16 0.00 0.00
5:35 am 05:35 Clear 27 -3 19 -7 74 74 WNW 6 9 30.30 1026 10 16 0.00 0.00
5:55 am 05:55 Clear 27 -3 19 -7 74 74 W 3 6 30.30 1026 10 16 0.00 0.00
6:15 am 06:15 Clear 27 -3 19 -7 74 74 Calm 30.30 1026 10 16 0.00 0.00
6:35 am 06:35 Clear 27 -3 19 -7 74 74 Calm 30.30 1026 10 16 0.00 0.00
6:55 am 06:55 Clear 27 -3 19 -7 74 74 Calm 30.30 1026 10 16 0.00 0.00
7:15 am 07:15 Sunny 27 -3 18 -8 69 69 Calm 30.30 1026 10 16 0.00 0.00
7:35 am 07:35 Sunny 28 -2 19 -7 69 69 Calm 30.30 1026 10 16 0.00 0.00
7:55 am 07:55 Sunny 28 -2 21 -6 74 74 WSW 3 6 30.30 1026 10 16 0.00 0.00
8:15 am 08:15 Sunny 34 1 23 -5 65 65 Calm 30.27 1025 10 16 0.00 0.00
8:35 am 08:35 Sunny 37 3 25 -4 60 60 Calm 30.24 1024 10 16 0.00 0.00
8:55 am 08:55 Sunny 41 5 27 -3 57 57 Calm 30.24 1024 10 16 0.00 0.00
9:15 am 09:15 Sunny 46 8 25 -4 43 43 WSW 3 6 30.21 1023 10 16 0.00 0.00
9:35 am 09:35 Sunny 50 10 27 -3 40 40 SSW 5 7 30.18 1022 10 16 0.00 0.00
9:55 am 09:55 Sunny 52 11 27 -3 38 38 WSW 7 11 30.18 1022 10 16 0.00 0.00
10:15 am 10:15 Sunny 54 12 27 -3 35 35 SSW 7 11 30.18 1022 10 16 0.00 0.00
10:35 am 10:35 Sunny 55 13 27 -3 33 33 S 7 11 30.18 1022 10 16 0.00 0.00
10:55 am 10:55 Sunny 59 15 27 -3 29 29 WSW 9 15 30.15 1021 10 16 0.00 0.00
11:15 am 11:15 Sunny 61 16 27 -3 27 27 SSW 9 15 30.15 1021 10 16 0.00 0.00
11:35 am 11:35 Sunny 63 17 27 -3 25 25 SW 9 15 30.15 1021 10 16 0.00 0.00
11:55 am 11:55 Sunny 63 17 27 -3 25 25 SW 10 17 30.15 1021 10 16 0.00 0.00
12:15 pm 12:15 Sunny 64 18 27 -3 24 24 SW 16 26 30.09 1019 10 16 0.00 0.00
12:35 pm 12:35 Sunny 66 19 27 -3 22 22 SW 13 20 30.09 1019 10 16 0.00 0.00
12:55 pm 12:55 Sunny 66 19 25 -4 21 21 S 16 26 30.09 1019 10 16 0.00 0.00
1:15 pm 13:15 Sunny 66 19 25 -4 21 21 SSE 16 26 30.06 1018 10 16 0.00 0.00
1:35 pm 13:35 Sunny 66 19 25 -4 21 21 E 13 20 30.06 1018 10 16 0.00 0.00
1:55 pm 13:55 Sunny 66 19 25 -4 21 21 S 15 24 30.03 1017 10 16 0.00 0.00
2:15 pm 14:15 Sunny 66 19 25 -4 21 21 E 14 22 30.03 1017 10 16 0.00 0.00
2:35 pm 14:35 Sunny 68 20 25 -4 20 20 S 14 22 30.03 1017 10 16 0.00 0.00
2:55 pm 14:55 Sunny 66 19 27 -3 22 22 S 17 28 30.00 1016 10 16 0.00 0.00
3:15 pm 15:15 Sunny 68 20 27 -3 21 21 SE 15 24 29.97 1015 10 16 0.00 0.00
3:35 pm 15:35 Sunny 68 20 25 -4 20 20 S 20 31 29.97 1015 10 16 0.00 0.00
3:55 pm 15:55 Sunny 68 20 25 -4 20 20 S 18 30 29.97 1015 10 16 0.00 0.00
4:15 pm 16:15 Sunny 68 20 27 -3 21 21 SSE 21 33 29.97 1015 10 16 0.00 0.00
4:35 pm 16:35 Sunny 66 19 23 -5 19 19 SE 16 26 29.97 1015 10 16 0.00 0.00
4:55 pm 16:55 Sunny 64 18 25 -4 22 22 SSE 13 20 29.97 1015 10 16 0.00 0.00
5:15 pm 17:15 Sunny 64 18 25 -4 22 22 SE 17 28 29.97 1015 10 16 0.00 0.00
5:35 pm 17:35 Sunny 64 18 21 -6 19 19 SE 20 31 29.97 1015 10 16 0.00 0.00
5:55 pm 17:55 Sunny 64 18 23 -5 21 21 ESE 20 31 29.97 1015 10 16 0.00 0.00
6:15 pm 18:15 Sunny 63 17 21 -6 20 20 SE 17 28 29.97 1015 10 16 0.00 0.00
6:35 pm 18:35 Clear 61 16 21 -6 22 22 SE 16 26 29.97 1015 10 16 0.00 0.00
6:55 pm 18:55 Clear 57 14 21 -6 25 25 SSE 16 26 29.97 1015 10 16 0.00 0.00
7:15 pm 19:15 Clear 55 13 21 -6 26 26 SE 17 28 29.97 1015 10 16 0.00 0.00
7:35 pm 19:35 Clear 55 13 23 -5 28 28 SE 16 26 29.97 1015 10 16 0.00 0.00
7:55 pm 19:55 Clear 54 12 25 -4 33 33 SE 15 24 29.97 1015 10 16 0.00 0.00
8:15 pm 20:15 Clear 54 12 25 -4 33 33 SE 16 26 29.97 1015 10 16 0.00 0.00
8:35 pm 20:35 Clear 54 12 25 -4 33 33 SE 20 31 29.97 1015 10 16 0.00 0.00
8:55 pm 20:55 Clear 54 12 25 -4 33 33 SE 18 30 29.97 1015 10 16 0.00 0.00
9:15 pm 21:15 Clear 54 12 25 -4 33 33 E 21 33 29.97 1015 10 16 0.00 0.00
9:35 pm 21:35 Clear 54 12 25 -4 33 33 ENE 20 31 29.97 1015 10 16 0.00 0.00
9:55 pm 21:55 Clear 54 12 23 -5 30 30 E 22 35 29.97 1015 10 16 0.00 0.00
10:15 pm 22:15 Clear 54 12 23 -5 30 30 NE 21 33 29.97 1015 10 16 0.00 0.00
10:35 pm 22:35 Clear 54 12 25 -4 33 33 NE 20 31 29.94 1014 10 16 0.00 0.00
10:55 pm 22:55 Clear 54 12 25 -4 33 33 NE 17 28 29.94 1014 10 16 0.00 0.00
11:15 pm 23:15 Clear 54 12 25 -4 33 33 NE 17 28 29.94 1014 10 16 0.00 0.00
11:35 pm 23:35 Clear 52 11 25 -4 35 35 NE 17 28 29.97 1015 10 16 0.00 0.00
11:55 pm 23:55 Clear 52 11 25 -4 35 35 NE 18 30 29.94 1014 10 16 0.00 0.00

Powered by AerisWeather